Location: Silverdale
(47.6506°N, 122.6941°W)
Time: 03:59:55
(UTC+00:00)

Altair - Pass Details

Date: 08 October 2022
Orbit: 1501 x 1682 km, 47.2° (Epoch: 02 December)

Event Time Altitude Azimuth Distance (km) Brightness Sun altitude
Rises 10:09:32 0° 197° (SSW) 4,693 - -39.8°
Reaches altitude 10° 10:13:07 10° 186° (S) 3,739 - -39.4°
Exits shadow 10:20:03 27° 138° (SE) 2,676 8.6 -38.5°
Maximum altitude 10:20:40 28° 132° (SE) 2,672 8.7 -38.4°
Drops below altitude 10° 10:28:27 10° 79° (E) 3,868 10.2 -37.5°
Sets 10:32:12 0° 69° (ENE) 4,883 11.0 -37.0°
